Weather History for KAVL - September, 2008

Change the Weather History Date:

Wednesday, September 17, 2008

  Actual Average Record
Temperature  
Mean Temperature 63 °F 66 °F  
Max Temperature 70 °F 77 °F 90 °F (1927)
Min Temperature 56 °F 55 °F 38 °F (2000)
Degree Days  
Heating Degree Days 2 2  
Month to date heating degree days 4 11  
Since 1 July heating degree days 5 13  
Cooling Degree Days 0 3  
Month to date cooling degree days 97 73  
Year to date cooling degree days 866 830  
Growing Degree Days 14 (Base 50)    
Moisture  
Dew Point 56 °F    
Average Humidity 80    
Maximum Humidity 100    
Minimum Humidity 59    
Precipitation  
Precipitation T in 0.12 in 1.92 in (2004)
Month to date precipitation 1.20 2.25  
Year to date precipitation 26.94 33.86  
Snow  
Snow 0.00 in 0.00 in 0.00 in ()
Month to date snowfall 0.0 0.0  
Since 1 July snowfall 0.0 0.0  
Since 1 September snowfall 0.0 0.0  
Snow Depth -    
Sea Level Pressure  
Sea Level Pressure 30.16 in    
Wind  
Wind Speed 3 mph (South)    
Max Wind Speed 12 mph    
Max Gust Speed 15 mph    
Visibility 10 miles    
Events      
T = Trace of Precipitation, MM = Missing Value Source: NWS Daily Summary

Daily Weather History Graph

Daily Weather History Graph

Search for Another Location

Airport or City:

Trip Planner

Search our weather history database for the weather conditions in past years. The results will help you decide how hot, cold, wet, or windy it might be!

Date:

Astronomy

Sep. 17, 2008 Rise Set
Actual Time 7:14 AM EDT 7:33 PM EDT
Civil Twilight 6:49 AM EDT 7:59 PM EDT
Nautical Twilight 6:19 AM EDT 8:28 PM EDT
Astronomical Twilight 5:49 AM EDT 8:59 PM EDT
Moon 8:38 PM EDT (9/17) 9:40 AM EDT (9/17)
Length of Visible Light 13h 09m
Length of Day
12h 18m
Waning Gibbous, 93% of the Moon is Illuminated
Sep 17
Waning Gibbous
Sep 22
Last Quarter
Sep 29
New
Oct 7
First Quarter
Oct 14
Full

Hourly Weather History & Observations

Time (EDT) Temp. Dew Point Humidity Pressure Visibility Wind Dir Wind Speed Gust Speed Precip Events Conditions
12:54 AM 61.0 °F 57.0 °F 87% 30.16 in 10.0 mi Variable 4.6 mph - N/A   Overcast
1:54 AM 61.0 °F 55.9 °F 83% 30.16 in 10.0 mi Variable 4.6 mph - N/A   Overcast
2:54 AM 60.1 °F 55.0 °F 83% 30.15 in 10.0 mi Variable 5.8 mph - N/A   Overcast
3:54 AM 59.0 °F 55.0 °F 87% 30.14 in 10.0 mi NE 4.6 mph - 0.00 in   Overcast
4:54 AM 60.1 °F 55.0 °F 83% 30.15 in 10.0 mi Calm Calm - N/A   Overcast
5:54 AM 60.1 °F 54.0 °F 80% 30.15 in 10.0 mi Variable 3.5 mph - N/A   Overcast
6:54 AM 59.0 °F 55.9 °F 90% 30.15 in 10.0 mi Calm Calm - N/A   Overcast
7:54 AM 59.0 °F 55.9 °F 90% 30.17 in 10.0 mi Calm Calm - N/A   Overcast
8:54 AM 60.1 °F 54.0 °F 80% 30.18 in 10.0 mi Variable 4.6 mph - N/A   Overcast
9:54 AM 61.0 °F 53.1 °F 75% 30.19 in 10.0 mi Variable 3.5 mph - N/A   Overcast
10:54 AM 63.0 °F 53.1 °F 70% 30.20 in 10.0 mi Variable 3.5 mph - N/A   Overcast
11:54 AM 64.9 °F 55.9 °F 73% 30.20 in 10.0 mi South 4.6 mph - N/A   Overcast
12:43 PM 66.2 °F 55.4 °F 68% 30.24 in 10.0 mi Variable 4.6 mph - N/A   Overcast
12:54 PM 66.0 °F 54.0 °F 65% 30.18 in 10.0 mi SSE 8.1 mph - N/A   Overcast
1:54 PM 68.0 °F 54.0 °F 61% 30.17 in 10.0 mi South 4.6 mph - N/A   Overcast
2:54 PM 69.1 °F 57.0 °F 65% 30.15 in 10.0 mi Variable 4.6 mph - N/A   Overcast
3:54 PM 70.0 °F 57.0 °F 63% 30.14 in 10.0 mi SSE 6.9 mph - N/A   Mostly Cloudy
4:54 PM 68.0 °F 57.9 °F 70% 30.13 in 10.0 mi SSW 8.1 mph - N/A   Overcast
5:54 PM 68.0 °F 57.9 °F 70% 30.13 in 10.0 mi SSE 4.6 mph - N/A   Overcast
6:27 PM 66.2 °F 57.2 °F 73% 30.18 in 10.0 mi South 5.8 mph - N/A   Overcast
6:54 PM 66.0 °F 57.9 °F 75% 30.14 in 10.0 mi South 5.8 mph - N/A   Overcast
7:54 PM 64.0 °F 57.9 °F 80% 30.14 in 10.0 mi South 3.5 mph - N/A   Partly Cloudy
8:54 PM 62.1 °F 57.9 °F 86% 30.15 in 10.0 mi Calm Calm - N/A   Clear
9:54 PM 60.1 °F 57.9 °F 93% 30.17 in 9.0 mi Calm Calm - N/A   Clear
10:54 PM 57.9 °F 57.0 °F 97% 30.19 in 7.0 mi Calm Calm - N/A   Clear
11:54 PM 57.9 °F 57.0 °F 97% 30.18 in 7.0 mi Calm Calm - N/A   Clear